Date String (YYYY-MM-DD hh:mm:ss) UTC,Instrument flags,Ambient pressure (hPa),Sample flow (lpm),Bypass flow (lpm),Sample temperature (°C),Ambient temperature (°C),ASC tube jacket temperature (°C),LED temperature (°C),Box temperature (°C),Sample RH (%),Span deviation,Mass concentration (μg/m³),Mass concentration (μg/m³),Mass concentration (μg/m³)
DateTimeUTC,F1_M11,P_M11,Q1_M11,Q2_M11,T1_M11,T2_M11,T3_M11,T4_M11,T5_M11,U1_M11,ZSPAN_M11,X0_M11,X2_M11,X1_M11
2022-06-15 20:00:00,,0823.4,5.00,0.00,29.1,27.9,00.0,38.0,31.1,06.5,0000.0,0002.76,0001.86,0001.51
2022-06-15 20:01:00,,0823.4,5.00,0.00,29.2,28.0,00.0,38.0,31.1,06.6,0000.0,0002.82,0001.88,0001.51
2022-06-15 20:02:00,,0823.5,5.00,0.00,29.2,28.2,00.0,38.0,31.2,06.8,0000.0,0002.88,0001.88,0001.49
2022-06-15 20:03:00,,0823.6,4.99,0.00,29.2,28.3,00.0,38.0,31.2,06.4,0000.0,0003.20,0001.88,0001.49
2022-06-15 20:04:00,,0823.6,5.00,0.00,29.3,28.4,00.0,38.0,31.3,06.3,0000.0,0004.07,0001.92,0001.48
2022-06-15 20:05:00,,0823.5,5.00,0.00,29.3,28.4,00.0,38.0,31.3,06.2,0000.0,0004.11,0001.93,0001.48
2022-06-15 20:06:00,,0823.4,5.01,0.00,29.3,27.8,00.0,38.0,31.1,06.5,0000.0,0004.05,0001.93,0001.49
2022-06-15 20:07:00,,0823.4,5.00,0.00,29.2,27.1,00.0,37.9,30.9,06.8,0000.0,0004.20,0001.99,0001.51
2022-06-15 20:08:00,,0823.4,5.01,0.00,29.2,27.0,00.0,37.9,30.9,06.6,0000.0,0004.25,0001.98,0001.49
2022-06-15 20:09:00,,0823.4,5.00,0.00,29.1,27.1,00.0,37.9,30.9,06.3,0000.0,0004.20,0001.98,0001.48
2022-06-15 20:10:00,,0823.4,4.99,0.00,29.1,27.2,00.0,37.9,30.9,06.5,0000.0,0004.27,0001.99,0001.48
2022-06-15 20:11:00,,0823.3,5.01,0.00,29.1,27.4,00.0,37.9,31.0,06.8,0000.0,0004.48,0002.03,0001.47
2022-06-15 20:12:00,,0823.3,5.01,0.00,29.1,27.6,00.0,37.9,31.0,06.5,0000.0,0004.47,0002.04,0001.49
2022-06-15 20:13:00,,0823.6,5.00,0.00,29.1,27.7,00.0,37.9,31.0,06.5,0000.0,0004.67,0002.11,0001.52
2022-06-15 20:14:00,,0823.7,5.01,0.00,29.1,27.9,00.0,37.9,31.1,06.6,0000.0,0004.64,0002.15,0001.53
2022-06-15 20:15:00,,0823.7,5.00,0.00,29.2,28.1,00.0,38.0,31.1,06.7,0000.0,0003.84,0002.18,0001.53
2022-06-15 20:16:00,,0823.7,5.00,0.00,29.2,28.2,00.0,38.0,31.2,06.7,0000.0,0004.61,0002.21,0001.53
2022-06-15 20:17:00,,0823.7,5.00,0.00,29.2,28.3,00.0,38.0,31.2,06.7,0000.0,0004.86,0002.21,0001.53
2022-06-15 20:18:00,,0823.6,4.99,0.00,29.3,28.4,00.0,38.0,31.3,06.7,0000.0,0004.89,0002.18,0001.53
2022-06-15 20:19:00,,0823.6,5.01,0.00,29.3,28.5,00.0,38.0,31.3,06.8,0000.0,0004.83,0002.15,0001.52
2022-06-15 20:20:00,,0823.5,5.01,0.00,29.3,28.2,00.0,38.0,31.2,07.1,0000.0,0004.83,0002.13,0001.52
2022-06-15 20:21:00,,0823.4,4.99,0.00,29.3,27.4,00.0,38.0,31.0,07.1,0000.0,0004.81,0002.13,0001.52
2022-06-15 20:22:00,,0823.4,5.00,0.00,29.2,27.1,00.0,37.9,30.9,07.0,0000.0,0004.71,0002.15,0001.52
2022-06-15 20:23:00,,0823.5,5.00,0.00,29.1,27.2,00.0,37.9,30.9,07.0,0000.0,0004.78,0002.19,0001.52
2022-06-15 20:24:00,,0823.7,5.00,0.00,29.1,27.3,00.0,37.9,30.9,06.7,0000.0,0004.78,0002.20,0001.50
2022-06-15 20:25:00,,0823.6,5.00,0.00,29.1,27.4,00.0,37.9,31.0,06.7,0000.0,0004.74,0002.17,0001.50
2022-06-15 20:26:00,,0823.6,5.00,0.00,29.1,27.6,00.0,37.9,31.0,06.7,0000.0,0004.59,0002.13,0001.51
2022-06-15 20:27:00,,0823.7,5.01,0.00,29.1,27.7,00.0,37.9,31.1,06.5,0000.0,0003.80,0002.10,0001.52
2022-06-15 20:28:00,,0823.6,4.99,0.00,29.2,27.9,00.0,38.0,31.1,06.7,0000.0,0003.62,0002.08,0001.52
2022-06-15 20:29:00,,0823.5,5.00,0.00,29.2,28.1,00.0,38.0,31.2,07.1,0000.0,0003.55,0002.08,0001.52
2022-06-15 20:30:00,,0823.5,5.00,0.00,29.2,28.2,00.0,38.0,31.2,06.8,0000.0,0003.49,0002.08,0001.53
2022-06-15 20:31:00,,0823.4,4.98,0.00,29.3,28.3,00.0,38.0,31.3,06.5,0000.0,0003.48,0002.08,0001.53
2022-06-15 20:32:00,,0823.6,4.99,0.00,29.3,28.4,00.0,38.0,31.3,06.2,0000.0,0003.62,0002.10,0001.53
2022-06-15 20:33:00,,0823.6,5.00,0.00,29.3,28.5,00.0,38.1,31.4,06.0,0000.0,0003.84,0002.06,0001.52
2022-06-15 20:34:00,,0823.6,5.00,0.00,29.3,28.0,00.0,38.0,31.2,06.4,0000.0,0003.88,0002.05,0001.51
2022-06-15 20:35:00,,0823.5,5.01,0.00,29.3,27.2,00.0,38.0,31.0,06.6,0000.0,0003.69,0001.99,0001.52
2022-06-15 20:36:00,,0823.4,4.99,0.00,29.2,27.0,00.0,37.9,30.9,06.7,0000.0,0003.77,0002.01,0001.52
2022-06-15 20:37:00,,0823.4,5.01,0.00,29.2,27.1,00.0,37.9,30.9,06.8,0000.0,0003.81,0002.02,0001.51
2022-06-15 20:38:00,,0823.4,5.01,0.00,29.1,27.2,00.0,37.9,31.0,06.8,0000.0,0003.79,0002.01,0001.50
2022-06-15 20:39:00,,0823.4,5.01,0.00,29.1,27.4,00.0,38.0,31.0,06.5,0000.0,0003.86,0002.03,0001.48
2022-06-15 20:40:00,,0823.4,5.00,0.00,29.1,27.6,00.0,38.0,31.0,06.5,0000.0,0003.89,0002.05,0001.49
2022-06-15 20:41:00,,0823.4,5.01,0.00,29.1,27.8,00.0,38.0,31.1,06.7,0000.0,0003.83,0002.04,0001.48
2022-06-15 20:42:00,,0823.4,5.00,0.00,29.2,27.9,00.0,38.0,31.1,06.7,0000.0,0003.92,0002.08,0001.49
2022-06-15 20:43:00,,0823.3,5.01,0.00,29.2,28.1,00.0,38.0,31.2,06.9,0000.0,0004.31,0002.07,0001.49
2022-06-15 20:44:00,,0823.4,5.00,0.00,29.2,28.2,00.0,38.0,31.2,06.9,0000.0,0004.86,0002.10,0001.51
2022-06-15 20:45:00,,0823.4,4.99,0.00,29.3,28.3,00.0,38.0,31.3,06.9,0000.0,0004.78,0002.11,0001.52
2022-06-15 20:46:00,,0823.4,5.00,0.00,29.3,28.5,00.0,38.0,31.3,07.1,0000.0,0006.04,0002.17,0001.51
2022-06-15 20:47:00,,0823.5,4.99,0.00,29.3,28.2,00.0,38.0,31.3,06.9,0000.0,0006.25,0002.13,0001.50
2022-06-15 20:48:00,,0823.5,5.00,0.00,29.3,27.4,00.0,38.0,31.0,07.0,0000.0,0006.42,0002.16,0001.51
2022-06-15 20:49:00,,0823.6,4.99,0.00,29.2,27.1,00.0,37.9,30.9,06.6,0000.0,0006.49,0002.16,0001.51
2022-06-15 20:50:00,,0823.5,5.01,0.00,29.2,27.1,00.0,37.9,30.9,06.3,0000.0,0006.33,0002.16,0001.51
2022-06-15 20:51:00,,0823.5,5.00,0.00,29.1,27.2,00.0,37.9,30.9,06.4,0000.0,0006.34,0002.16,0001.51
2022-06-15 20:52:00,,0823.5,4.99,0.00,29.1,27.3,00.0,37.9,31.0,06.4,0000.0,0006.33,0002.15,0001.51
2022-06-15 20:53:00,,0823.4,5.01,0.00,29.1,27.5,00.0,37.9,31.0,06.7,0000.0,0006.29,0002.14,0001.51
2022-06-15 20:54:00,,0823.5,5.00,0.00,29.1,27.7,00.0,38.0,31.1,06.9,0000.0,0006.05,0002.15,0001.50
2022-06-15 20:55:00,,0823.6,4.99,0.00,29.2,27.9,00.0,38.0,31.1,07.1,0000.0,0005.17,0002.14,0001.51
2022-06-15 20:56:00,,0823.7,5.00,0.00,29.2,28.1,00.0,38.0,31.2,07.3,0000.0,0005.11,0002.13,0001.52
2022-06-15 20:57:00,,0823.6,5.01,0.00,29.2,28.2,00.0,38.0,31.2,07.3,0000.0,0003.96,0002.05,0001.51
2022-06-15 20:58:00,,0823.6,4.99,0.00,29.3,28.3,00.0,38.0,31.3,07.2,0000.0,0003.44,0002.07,0001.53
2022-06-15 20:59:00,,0823.6,5.01,0.00,29.3,28.5,00.0,38.0,31.3,07.0,0000.0,0003.30,0002.07,0001.54
